User: anonymous   Login
Location: Unspecified
(0.0000°N, 0.0000°E)
Time: 23:56:44
(UTC+00:00)
Language:

STARLINK-6048 - Orbit

View from above orbital plane
View from above orbital plane
View from above satellite
View from above satellite

Ground track
Ground track

The orbit is defined by the following mean orbital elements,

1 56459U          26145.42584060 +.00000000 +00000-0 +45625-4 0 00005
2 56459  69.9995 310.8437 0002944 264.7690  95.3133 14.98331995    03
Epoch (UTC): 25 May 2026 10:13:12
Eccentricity: 0.0002944
inclination: 69.9995°
perigee height: 570 km
apogee height: 574 km
right ascension of ascending node: 310.8437°
argument of perigee: 264.7690°
revolutions per day: 14.98331995
mean anomaly at epoch: 95.3133°

The dashed part of the orbit path shows where the satellite is in the earth's shadow,  

DLR